Date String (YYYY-MM-DD hh:mm:ss) UTC,Instrument flags,Ambient pressure (hPa),Sample flow (lpm),Bypass flow (lpm),Sample temperature (°C),Ambient temperature (°C),ASC tube jacket temperature (°C),LED temperature (°C),Box temperature (°C),Sample RH (%),Span deviation,Mass concentration (μg/m³),Mass concentration (μg/m³),Mass concentration (μg/m³)
DateTimeUTC,F1_M11,P_M11,Q1_M11,Q2_M11,T1_M11,T2_M11,T3_M11,T4_M11,T5_M11,U1_M11,ZSPAN_M11,X0_M11,X2_M11,X1_M11
2021-11-09 07:00:00,,0831.2,5.00,0.00,25.2,24.3,00.0,34.3,27.0,16.5,-001.5,0025.20,0013.10,0011.73
2021-11-09 07:01:00,,0831.2,5.00,0.00,25.2,24.3,00.0,34.3,27.0,16.5,-001.2,0023.47,0013.05,0011.72
2021-11-09 07:02:00,,0831.4,5.00,0.00,25.2,24.4,00.0,34.3,27.0,16.4,-001.4,0022.48,0012.94,0011.67
2021-11-09 07:03:00,,0831.3,5.01,0.00,25.2,24.4,00.0,34.3,27.1,16.3,-001.3,0022.16,0012.87,0011.61
2021-11-09 07:04:00,,0831.3,5.00,0.00,25.2,24.4,00.0,34.3,27.1,16.2,-001.0,0021.69,0012.78,0011.57
2021-11-09 07:05:00,,0831.2,5.00,0.00,25.2,24.4,00.0,34.3,27.0,16.1,-000.7,0020.98,0012.71,0011.54
2021-11-09 07:06:00,,0831.2,5.00,0.00,25.2,24.4,00.0,34.3,27.0,16.2,-000.5,0020.45,0012.71,0011.52
2021-11-09 07:07:00,,0831.2,5.00,0.00,25.2,24.4,00.0,34.3,27.0,16.2,-000.7,0019.80,0012.68,0011.51
2021-11-09 07:08:00,,0831.2,5.01,0.00,25.3,24.4,00.0,34.3,27.1,16.2,-000.7,0019.45,0012.67,0011.50
2021-11-09 07:09:00,,0831.2,5.00,0.00,25.3,24.4,00.0,34.3,27.1,16.2,-000.5,0019.42,0012.67,0011.50
2021-11-09 07:10:00,,0831.2,5.00,0.00,25.3,24.4,00.0,34.3,27.1,16.3,-000.2,0019.31,0012.67,0011.52
2021-11-09 07:11:00,,0831.2,4.99,0.00,25.3,24.4,00.0,34.3,27.1,16.4,-000.2,0017.97,0012.69,0011.54
2021-11-09 07:12:00,,0831.2,5.00,0.00,25.3,24.3,00.0,34.3,27.1,16.4,-000.3,0017.46,0012.70,0011.57
2021-11-09 07:13:00,,0831.3,5.00,0.00,25.3,24.3,00.0,34.3,27.1,16.4,-000.1,0017.53,0012.78,0011.62
2021-11-09 07:14:00,,0831.3,4.99,0.00,25.3,24.4,00.0,34.3,27.0,16.4,-000.1,0018.07,0012.81,0011.65
2021-11-09 07:15:00,,0831.2,5.01,0.00,25.3,24.4,00.0,34.3,27.0,16.4,-000.1,0018.64,0012.90,0011.69
2021-11-09 07:16:00,,0831.2,4.99,0.00,25.3,24.3,00.0,34.3,27.0,16.5,-000.3,0019.08,0012.99,0011.76
2021-11-09 07:17:00,,0831.2,5.01,0.00,25.3,24.3,00.0,34.3,27.0,16.5,-000.3,0019.40,0013.12,0011.85
2021-11-09 07:18:00,,0831.2,5.01,0.00,25.2,24.3,00.0,34.3,27.0,16.6,-000.3,0019.99,0013.31,0011.93
2021-11-09 07:19:00,,0831.2,4.99,0.00,25.2,24.3,00.0,34.3,27.0,16.6,-000.1,0020.20,0013.41,0011.99
2021-11-09 07:20:00,,0831.0,5.01,0.00,25.2,24.3,00.0,34.3,27.0,16.7,0000.1,0020.06,0013.46,0012.04
2021-11-09 07:21:00,,0831.0,4.99,0.00,25.2,24.3,00.0,34.3,27.0,16.7,0000.2,0020.52,0013.50,0012.10
2021-11-09 07:22:00,,0831.2,5.01,0.00,25.2,24.3,00.0,34.3,27.0,16.7,0000.0,0022.59,0013.55,0012.14
2021-11-09 07:23:00,,0831.2,4.99,0.00,25.2,24.3,00.0,34.3,27.0,16.7,0000.1,0023.82,0013.62,0012.18
2021-11-09 07:24:00,,0831.2,4.99,0.00,25.2,24.3,00.0,34.3,27.0,16.7,-000.2,0025.82,0013.70,0012.23
2021-11-09 07:25:00,,0831.3,5.01,0.00,25.2,24.3,00.0,34.3,26.9,16.8,-000.3,0025.94,0013.82,0012.30
2021-11-09 07:26:00,,0831.2,4.99,0.00,25.2,24.3,00.0,34.3,26.9,16.8,-000.3,0026.10,0013.91,0012.37
2021-11-09 07:27:00,,0831.2,5.01,0.00,25.2,24.3,00.0,34.2,26.9,16.8,-000.2,0027.66,0014.02,0012.41
2021-11-09 07:28:00,,0831.0,4.99,0.00,25.2,24.3,00.0,34.2,26.9,16.7,-000.2,0028.03,0013.96,0012.40
2021-11-09 07:29:00,,0831.0,5.00,0.00,25.1,24.3,00.0,34.2,26.9,16.7,0000.2,0028.07,0013.83,0012.37
2021-11-09 07:30:00,,0831.0,5.01,0.00,25.1,24.2,00.0,34.2,26.9,16.7,0000.3,0028.48,0013.81,0012.34
2021-11-09 07:31:00,,0830.9,5.01,0.00,25.1,24.2,00.0,34.2,26.8,16.7,0000.3,0028.73,0013.82,0012.33
2021-11-09 07:32:00,,0830.9,4.99,0.00,25.1,24.2,00.0,34.2,26.8,16.8,0000.2,0028.25,0013.78,0012.31
2021-11-09 07:33:00,,0831.0,4.99,0.00,25.1,24.2,00.0,34.2,26.9,16.8,0000.4,0026.75,0013.71,0012.28
2021-11-09 07:34:00,,0831.1,5.00,0.00,25.1,24.2,00.0,34.2,26.9,16.6,0000.5,0026.42,0013.66,0012.26
2021-11-09 07:35:00,,0831.2,5.01,0.00,25.1,24.2,00.0,34.2,26.8,16.5,0000.7,0024.61,0013.64,0012.27
2021-11-09 07:36:00,,0831.2,4.99,0.00,25.1,24.2,00.0,34.2,26.8,16.5,0000.7,0023.93,0013.55,0012.27
2021-11-09 07:37:00,,0831.1,5.00,0.00,25.0,24.2,00.0,34.2,26.7,16.6,0000.8,0023.32,0013.49,0012.27
2021-11-09 07:38:00,,0830.9,5.01,0.00,25.0,24.1,00.0,34.2,26.7,16.7,0000.8,0021.43,0013.39,0012.27
2021-11-09 07:39:00,,0830.9,5.00,0.00,25.0,24.1,00.0,34.2,26.8,16.7,0000.6,0021.27,0013.44,0012.31
2021-11-09 07:40:00,,0831.1,4.99,0.00,25.0,24.1,00.0,34.1,26.8,16.7,0000.5,0021.25,0013.52,0012.38
2021-11-09 07:41:00,,0831.0,5.00,0.00,25.0,24.1,00.0,34.1,26.7,16.7,0000.6,0021.00,0013.61,0012.47
2021-11-09 07:42:00,,0831.0,5.00,0.00,25.0,24.1,00.0,34.1,26.7,16.7,0000.6,0020.77,0013.61,0012.52
2021-11-09 07:43:00,,0830.9,5.01,0.00,25.0,24.1,00.0,34.1,26.7,16.7,0000.4,0020.48,0013.58,0012.51
2021-11-09 07:44:00,,0830.9,4.99,0.00,25.0,24.1,00.0,34.1,26.7,16.8,0000.3,0020.42,0013.59,0012.50
2021-11-09 07:45:00,,0830.9,5.00,0.00,25.0,24.1,00.0,34.1,26.7,16.8,0000.4,0019.82,0013.61,0012.51
2021-11-09 07:46:00,,0831.0,5.00,0.00,25.0,24.0,00.0,34.1,26.7,16.7,0000.3,0019.92,0013.55,0012.44
2021-11-09 07:47:00,,0831.0,5.00,0.00,25.0,24.0,00.0,34.1,26.7,16.7,0000.1,0020.07,0013.51,0012.32
2021-11-09 07:48:00,,0831.0,5.00,0.00,24.9,24.0,00.0,34.1,26.6,16.7,-000.2,0020.36,0013.49,0012.26
2021-11-09 07:49:00,,0830.9,4.99,0.00,24.9,24.0,00.0,34.0,26.6,16.8,-000.3,0021.19,0013.52,0012.25
2021-11-09 07:50:00,,0830.8,5.00,0.00,24.9,24.0,00.0,34.0,26.7,16.8,-000.2,0020.89,0013.45,0012.20
2021-11-09 07:51:00,,0830.8,5.01,0.00,24.9,24.0,00.0,34.0,26.7,16.9,-000.1,0020.47,0013.43,0012.18
2021-11-09 07:52:00,,0830.8,4.98,0.00,24.9,24.0,00.0,34.0,26.6,17.0,-000.3,0020.35,0013.43,0012.13
2021-11-09 07:53:00,,0831.0,5.00,0.00,24.9,24.0,00.0,34.0,26.6,16.9,-000.4,0020.96,0013.44,0012.13
2021-11-09 07:54:00,,0831.0,5.00,0.00,24.9,24.0,00.0,34.0,26.6,16.9,-000.4,0021.26,0013.58,0012.23
2021-11-09 07:55:00,,0831.0,5.00,0.00,24.9,24.0,00.0,34.0,26.6,16.9,-000.2,0021.23,0013.77,0012.42
2021-11-09 07:56:00,,0830.9,5.00,0.00,24.9,23.9,00.0,34.0,26.6,17.0,-000.3,0021.71,0013.93,0012.57
2021-11-09 07:57:00,,0830.8,5.00,0.00,24.9,23.9,00.0,34.0,26.6,17.0,-000.2,0022.07,0014.08,0012.72
2021-11-09 07:58:00,,0830.7,4.99,0.00,24.8,23.9,00.0,34.0,26.6,17.1,0000.1,0022.21,0014.21,0012.88
2021-11-09 07:59:00,,0830.6,5.01,0.00,24.9,23.9,00.0,34.0,26.6,17.1,0000.4,0022.62,0014.21,0012.90
